Change the Weather History Date:

Friday, August 15, 2014

  Actual Average (KHEQ) Record (KHEQ)
Temperature  
Mean Temperature 79 °F -  
Max Temperature 92 °F 85 °F 86 °F (2013)
Min Temperature 65 °F 56 °F 59 °F (2013)
Cooling Degree Days 14    
Growing Degree Days 29 (Base 50)    
Moisture  
Dew Point 59 °F    
Average Humidity 51    
Maximum Humidity 100    
Minimum Humidity 25    
Precipitation  
Precipitation 0.01 in - - ()
Sea Level Pressure  
Sea Level Pressure 29.99 in    
Wind  
Wind Speed 6 mph (NW)    
Max Wind Speed 15 mph    
Max Gust Speed 23 mph    
Visibility 10 miles    
Events Rain    
Averages and records for this station are not official NWS values.
T = Trace of Precipitation, MM = Missing Value Source: NWS Daily Summary

Daily Weather History Graph

Daily Weather History Graph

Search for Another Location

Airport or City:

Trip Planner

Search our weather history database for the weather conditions in past years. The results will help you decide how hot, cold, wet, or windy it might be!

Date:

Astronomy

Aug. 15, 2014 Rise Set
Actual Time 6:00 AM MDT 7:45 PM MDT
Civil Twilight 5:31 AM MDT 8:14 PM MDT
Nautical Twilight 4:56 AM MDT 8:49 PM MDT
Astronomical Twilight 4:18 AM MDT 9:27 PM MDT
Moon 10:49 PM MDT (8/15) 11:45 AM MDT (8/15)
Length of Visible Light 14h 43m
Length of Day
13h 45m
Waning Gibbous, 68% of the Moon is Illuminated
Aug 15
Waning Gibbous
Aug 17
Last Quarter
Aug 25
New
Sep 2
First Quarter
Sep 8
Full

Hourly Weather History & Observations

Time (MDT) Temp. Heat Index Dew Point Humidity Pressure Visibility Wind Dir Wind Speed Gust Speed Precip Events Conditions
12:15 AM 66.7 °F - 65.1 °F 95% 30.01 in 10.0 mi West 5.8 mph - N/A Rain Light Rain
12:35 AM 66.2 °F - 66.2 °F 100% 30.01 in 10.0 mi NW 4.6 mph - N/A   Unknown
12:55 AM 66.6 °F - 66.0 °F 98% 29.99 in 10.0 mi Calm Calm - N/A   Unknown
1:15 AM 66.2 °F - 66.2 °F 100% 29.98 in 10.0 mi Calm Calm - N/A   Unknown
1:35 AM - - - N/A% 29.96 in 10.0 mi Calm Calm - N/A   Unknown
1:55 AM - - - N/A% 29.96 in 10.0 mi Calm Calm - N/A   Unknown
2:15 AM - - - N/A% 29.95 in 10.0 mi Calm Calm - N/A   Unknown
2:35 AM - - - N/A% 29.96 in 10.0 mi NW 4.6 mph - N/A   Unknown
3:35 AM - - - N/A% 29.96 in 10.0 mi West 8.1 mph - N/A   Unknown
4:15 AM - - - N/A% 29.97 in 10.0 mi SW 4.6 mph - N/A   Unknown
4:35 AM - - - N/A% 29.97 in 10.0 mi WSW 5.8 mph - N/A   Unknown
4:55 AM - - - N/A% 29.97 in 10.0 mi West 5.8 mph - N/A   Unknown
5:15 AM - - - N/A% 29.97 in 10.0 mi Calm Calm - N/A   Unknown
5:35 AM - - - N/A% 29.98 in 10.0 mi Calm Calm - 0.01 in   Unknown
5:55 AM - - - N/A% 29.98 in 10.0 mi West 3.5 mph - 0.01 in   Unknown
6:15 AM - - - N/A% 29.99 in 10.0 mi Calm Calm - N/A   Unknown
6:35 AM - - - N/A% 30.00 in 10.0 mi SW 3.5 mph - N/A   Unknown
6:55 AM - - - N/A% 30.00 in 7.0 mi SW 3.5 mph - N/A   Unknown
7:15 AM - - - N/A% 30.00 in 10.0 mi WSW 3.5 mph - N/A   Unknown
7:35 AM - - - N/A% 30.00 in 10.0 mi West 5.8 mph - N/A   Unknown
7:55 AM 69.1 °F - 65.8 °F 89% 30.01 in 10.0 mi West 4.6 mph - N/A   Unknown
8:15 AM 71.1 °F - 65.7 °F 83% 30.01 in 10.0 mi WNW 5.8 mph - N/A   Unknown
8:35 AM 73.9 °F - 64.6 °F 72% 30.01 in 10.0 mi NW 9.2 mph - N/A   Unknown
8:55 AM 75.7 °F - 63.9 °F 66% 30.01 in 10.0 mi WNW 11.5 mph - N/A   Unknown
9:15 AM 77.4 °F - 63.5 °F 62% 30.01 in 10.0 mi NW 11.5 mph 16.1 mph N/A   Unknown
9:35 AM 79.0 °F - 62.6 °F 57% 30.01 in 10.0 mi NW 11.5 mph - N/A   Unknown
9:55 AM 79.0 °F - 63.5 °F 59% 30.02 in 10.0 mi NNW 12.7 mph - N/A   Unknown
10:15 AM 80.6 °F 81.8 °F 62.8 °F 54% 30.02 in 10.0 mi NNW 9.2 mph - N/A   Unknown
10:35 AM 81.9 °F 82.9 °F 62.8 °F 52% 30.02 in 10.0 mi NW 12.7 mph 18.4 mph N/A   Unknown
10:55 AM 83.3 °F 84.3 °F 62.6 °F 50% 30.02 in 10.0 mi NNW 10.4 mph 18.4 mph N/A   Unknown
11:15 AM 84.0 °F 84.7 °F 62.6 °F 48% 30.02 in 10.0 mi NNW 11.5 mph 18.4 mph N/A   Unknown
11:35 AM 85.1 °F 85.2 °F 61.0 °F 44% 30.01 in 10.0 mi NW 12.7 mph 18.4 mph N/A   Unknown
11:55 AM 86.0 °F 85.4 °F 58.8 °F 40% 30.01 in 10.0 mi NW 15.0 mph 19.6 mph N/A   Unknown
12:15 PM 87.6 °F 86.7 °F 58.3 °F 37% 30.01 in 10.0 mi NNW 13.8 mph 20.7 mph N/A   Unknown
12:35 PM 87.1 °F 86.5 °F 59.0 °F 39% 30.01 in 10.0 mi NNW 12.7 mph 20.7 mph N/A   Unknown
12:55 PM 88.3 °F 87.3 °F 58.5 °F 36% 30.01 in 10.0 mi NW 13.8 mph 21.9 mph N/A   Unknown
1:15 PM 88.7 °F 87.3 °F 56.7 °F 34% 30.00 in 10.0 mi NNW 11.5 mph 20.7 mph N/A   Unknown
1:35 PM 90.0 °F 88.1 °F 55.8 °F 31% 30.00 in 10.0 mi NW 12.7 mph 21.9 mph N/A   Unknown
1:55 PM 90.1 °F 88.1 °F 55.2 °F 30% 29.99 in 10.0 mi NW 10.4 mph 20.7 mph N/A   Unknown
2:15 PM 90.9 °F 88.9 °F 55.6 °F 30% 29.99 in 10.0 mi NNW 10.4 mph 21.9 mph N/A   Unknown
2:35 PM 91.4 °F 89.4 °F 55.2 °F 29% 29.99 in 10.0 mi NNW 15.0 mph 21.9 mph N/A   Unknown
2:55 PM 91.6 °F 89.6 °F 54.9 °F 29% 29.99 in 10.0 mi NNW 13.8 mph 21.9 mph N/A   Unknown
3:15 PM 92.3 °F 90.2 °F 54.7 °F 28% 29.98 in 10.0 mi North 15.0 mph 23.0 mph N/A   Unknown
3:35 PM 92.1 °F 90.0 °F 54.3 °F 28% 29.98 in 10.0 mi NNW 10.4 mph 17.3 mph N/A   Unknown
3:55 PM 92.1 °F 89.7 °F 53.8 °F 27% 29.97 in 10.0 mi North 8.1 mph 19.6 mph N/A   Unknown
4:15 PM 92.8 °F 90.4 °F 53.1 °F 26% 29.96 in 10.0 mi North 12.7 mph 17.3 mph N/A   Unknown
4:35 PM 92.5 °F 89.9 °F 53.1 °F 26% 29.96 in 10.0 mi NNW 10.4 mph 18.4 mph N/A   Unknown
4:55 PM 92.1 °F - 52.3 °F 26% 29.96 in 10.0 mi North 10.4 mph - N/A   Unknown
5:15 PM 92.1 °F - 51.6 °F 25% 29.96 in 10.0 mi North 11.5 mph 17.3 mph N/A   Unknown
5:35 PM 91.6 °F - 51.4 °F 25% 29.96 in 10.0 mi North 10.4 mph - N/A   Unknown
5:55 PM 90.0 °F - 50.7 °F 26% 29.96 in 10.0 mi NW 9.2 mph - N/A   Unknown
6:15 PM 86.2 °F - 52.2 °F 31% 29.96 in 10.0 mi North 6.9 mph - N/A   Unknown
6:35 PM 84.4 °F 83.2 °F 55.4 °F 37% 29.96 in 10.0 mi NNW 3.5 mph - N/A   Unknown
6:55 PM 82.8 °F 82.5 °F 57.9 °F 43% 29.95 in 1.5 mi North 3.5 mph - N/A   Haze
7:15 PM 83.3 °F 82.3 °F 54.9 °F 38% 29.95 in 2.5 mi Calm Calm - N/A   Haze
7:35 PM 80.8 °F 81.3 °F 59.4 °F 48% 29.95 in 10.0 mi Calm Calm - N/A   Unknown
7:55 PM 78.4 °F - 61.5 °F 56% 29.96 in 10.0 mi WSW 6.9 mph - N/A   Unknown
8:15 PM 77.4 °F - 60.1 °F 55% 29.97 in 10.0 mi West 6.9 mph - N/A   Unknown
8:35 PM 74.5 °F - 59.2 °F 59% 29.98 in 10.0 mi WSW 3.5 mph - N/A   Unknown
9:15 PM 74.5 °F - 59.7 °F 60% 30.00 in 10.0 mi Calm Calm - N/A   Unknown
9:55 PM 72.1 °F - 60.1 °F 66% 30.00 in 10.0 mi SW 3.5 mph - N/A   Unknown
10:15 PM 69.1 °F - 61.0 °F 75% 30.00 in 10.0 mi WSW 5.8 mph - N/A   Unknown
10:35 PM 69.3 °F - 60.6 °F 74% 30.00 in 10.0 mi WSW 5.8 mph - N/A   Unknown
11:15 PM 68.7 °F - 59.4 °F 72% 30.00 in 10.0 mi WNW 3.5 mph - N/A   Unknown
11:35 PM 65.7 °F - 60.8 °F 84% 30.00 in 10.0 mi Calm Calm - N/A   Unknown